Tracking 30685 objects as of 18-Jun-2025
HD Live streaming from Space Station
objects crossing your sky now

STARLINK-30851

Track STARLINK-30851 now!
10-day predictions
STARLINK-30851 is classified as:


NORAD ID: 58215
Int'l Code: 2023-170K
Perigee: 565.3 km
Apogee: 567.2 km
Inclination: 43.0 °
Period: 95.8 minutes
Semi major axis: 6937 km
RCS: Unknown
Launch date: November 3, 2023
Source: United States (US)
Launch site: AIR FORCE EASTERN TEST RANGE (AFETR)
Your satellite tracking list
Your tracking list is empty




NASA's NSSDC Master Catalog

Two Line Element Set (TLE):
1 58215U 23170K   25168.79577439  .00000736  00000-0  69563-4 0  9996
2 58215  43.0017 195.1873 0001399 277.8797  82.1887 15.02533282 90432
Source of the keplerian elements: AFSPC